GFSSW_850_dewp_021.txt.gz
Dewpoint
1 -4 -6 -5 -2 -1 -4 -8 -9 -9 -9 -11 -12 -13 -15 -17 -18 -14 -8 -3 -9 -10 -15 -4 -0 -1 -0 2 4 4 -0 -2 -2 -1 -1 -3 -0 -1 2 3 2 4 3 3 3
0 -2 -3 -3 -4 -6 -7 -7 -7 -8 -9 -11 -12 -14 -16 -18 -7 -8 -10 -10 -10 -11 -1 -2 -2 -2 -4 -2 -0 -2 -3 -6 -6 -2 -2 -3 -3 -2 -2 -1 -3 0 1 3 3
0 -1 -4 -6 -6 -6 -6 -7 -8 -9 -9 -11 -13 -14 -16 -18 -5 -3 -14 -11 -11 -14 -4 -2 -2 -2 -4 -2 -4 -6 -4 -9 -5 -6 -4 -4 -5 -6 -3 -0 -6 -6 -4 -0 3
-1 -5 -6 -6 -6 -6 -6 -7 -8 -9 -10 -12 -13 -15 -17 -13 -7 -5 -12 -15 -18 -18 -2 -3 -3 -4 -4 -5 -3 -2 -9 -7 -6 -5 -3 -5 -6 -6 -5 -5 -5 -5 -1 -1 2
-4 -5 -5 -5 -5 -5 -6 -7 -8 -9 -10 -12 -13 -14 -14 -5 -5 -10 -10 -12 -14 -8 -3 -3 -6 -5 -5 -6 -6 -4 -6 -6 -5 -5 -4 -4 -4 -5 -5 -6 -7 -5 -5 -0 -1
-5 -5 -5 -5 -5 -5 -6 -7 -8 -10 -11 -12 -14 -14 -5 -10 -9 -8 -12 -14 -13 -3 -3 -2 -2 -2 -5 -5 -5 -5 -4 -6 -7 -7 -6 -6 -5 -5 -7 -7 -6 -6 -6 -6 -3
-6 -6 -6 -6 -6 -6 -6 -7 -8 -10 -11 -12 -14 -16 -8 -5 -10 -10 -11 -11 -14 -9 -3 -1 -1 -3 -2 -5 -3 -4 -4 -7 -8 -9 -7 -4 -4 -5 -7 -6 -7 -8 -10 -9 -8
-8 -8 -8 -7 -7 -7 -7 -8 -8 -10 -11 -12 -14 -7 -9 -13 -10 -11 -10 -8 -11 -7 -6 -2 -1 -2 -2 -4 -6 -5 -6 -6 -7 -5 -6 -3 -6 -11 -10 -7 -9 -11 -13 -14 -11
-10 -10 -11 -11 -10 -10 -10 -10 -10 -11 -12 -13 -8 -5 -6 -9 -8 -9 -7 -8 -7 -4 -3 -3 -2 -2 -2 -2 -6 -9 -6 -8 -11 -8 -8 -5 -4 -8 -10 -10 -9 -10 -10 -11 -12
-12 -12 -12 -12 -12 -13 -13 -13 -13 -13 -14 -14 -15 -7 -10 -8 -7 -10 -8 -9 -5 -4 -4 -3 -4 -3 -5 -5 -6 -9 -11 -12 -12 -13 -9 -9 -8 -10 -11 -10 -10 -11 -11 -11 -11
-9 -11 -12 -13 -13 -9 -10 -6 1 -0 -2 -4 -6 -8 -6 -6 -9 -8 -8 -6 -5 -5 -6 -5 -6 -7 -10 -8 -10 -9 -9 -9 -10 -10 -8 -7 -6 -6 -7 -8 -7 -7 -8 -9 -9
-2 -6 -10 -12 -11 -6 -4 -2 -3 -1 -3 -2 -3 -3 -5 -5 -5 -7 -7 -7 -7 -5 -6 -5 -2 -5 -8 -6 -7 -6 -5 -4 -5 -7 -5 -4 -4 -5 -5 -5 -6 -8 -9 -8 -7
2 -3 -8 -10 -10 -6 -0 -4 -6 -6 -3 -2 -3 -3 -4 -3 -5 -6 -6 -7 -6 -5 -5 -3 -4 -5 -6 -5 -4 -4 -4 -4 -3 -4 -4 -4 -4 -6 -10 -8 -8 -5 -3 -3 -2
4 -0 -7 -7 -2 -2 1 -6 -6 -3 -1 -2 -4 -3 -4 -4 -4 -5 -5 -5 -5 -4 -4 -3 -5 -5 -3 -3 -4 -2 -3 -2 -2 -1 -2 -5 -1 -5 -8 -7 -4 -3 -3 -5 -6
-1 4 -5 -3 -1 2 -2 -6 -4 0 1 -3 -3 -3 -4 -4 -4 -3 -5 -5 -4 -4 -4 -5 -5 -3 -3 -4 -4 -3 -3 -2 -2 -1 -0 -1 -1 -6 -7 -5 -3 -4 -5 -7 -9
-15 4 -3 -4 -1 -3 -3 -4 -0 0 1 1 -1 -2 -2 -2 -3 -2 -3 -3 -3 -3 -4 -4 -5 -4 -3 -4 -4 -3 -1 -2 -2 0 3 -3 -3 -5 -6 -4 -2 -4 -4 -5 -8
-20 -1 4 -0 3 -2 -2 0 -0 -2 -2 1 0 -2 -2 -1 -2 -2 0 2 2 2 -3 -4 -4 -4 -1 -1 -2 -1 -3 -3 -3 4 3 -5 -5 -5 -7 -3 -4 -7 -8 -9 -10
-2 -1 1 2 1 0 -1 -2 -2 0 1 -1 -2 -3 -1 -1 -2 -5 -4 -1 -1 -0 2 2 -0 -2 -4 -2 1 -0 -2 -1 -1 -4 -4 -4 -3 -7 -7 -6 -8 -12 -15 -16 -10
-1 -0 -3 -0 -1 -1 -1 -4 3 1 -3 -2 -3 -3 -0 -0 -7 -10 0 3 -0 -3 1 -0 -1 -4 -8 -3 -4 -4 -3 -2 2 -1 -1 -4 -8 -10 -11 -10 -13 -16 -16 -17 -11
3 -4 -15 -7 -3 -1 -4 2 -0 -6 -8 -7 -3 -3 -4 -4 -8 -11 -11 -2 -1 -4 -5 -4 -7 -10 -5 -9 -6 -5 -11 -8 -7 -5 -7 -14 -11 -10 -8 -11 -14 -14 -15 -15 -10
3 -3 -14 -9 -4 -6 -2 2 -2 -10 -7 -6 -6 -9 -4 -6 -11 -15 -10 -2 -4 -4 -6 -8 -9 -8 -6 -11 -11 -11 -10 -9 -7 -4 -3 -3 -5 -11 -11 -12 -11 -13 -15 -13 -7
-4 -12 -18 -8 -9 -7 -2 -6 -7 -10 -11 -6 -6 -6 -6 -10 -14 -11 -7 -3 -4 -5 -8 -9 -9 -11 -10 -12 -14 -13 -10 -5 -3 -3 -4 -2 -2 -12 -12 -12 -13 -14 -13 -9 -7
-15 -16 -23 -19 -18 -15 -9 -9 -7 -10 -7 -9 -6 -8 -10 -10 -13 -12 -9 -2 -3 -6 -8 -8 -8 -6 -8 -5 -6 -5 -5 -8 -7 -2 -0 -1 -3 -10 -11 -13 -15 -14 -12 -8 -7
-15 -13 -16 -14 -13 -17 -14 -13 -8 -6 -8 -7 -7 -7 -9 -10 -10 -10 -9 -10 -5 -7 -6 -5 -7 -7 -5 -6 -6 -5 -6 -7 -7 -1 -4 -5 -7 -9 -12 -13 -14 -11 -9 -7 -6
-8 -8 -8 -11 -14 -14 -14 -15 -11 -7 -8 -9 -7 -8 -9 -11 -11 -10 -7 -9 -10 -6 -6 -5 -4 -6 -7 -7 -6 -6 -6 -7 -6 -7 -5 -6 -8 -10 -13 -13 -11 -9 -7 -7 -6
-10 -10 -11 -10 -12 -16 -12 -11 -10 -9 -11 -11 -11 -6 -8 -7 -9 -8 -9 -8 -7 -7 -6 -6 -2 -3 -3 -6 -6 -6 -7 -7 -8 -8 -9 -11 -11 -14 -12 -11 -8 -6 -7 -7 -7
-13 -14 -10 -10 -14 -16 -11 -9 -8 -9 -8 -7 -8 -8 -7 -7 -6 -7 -6 -6 -6 -5 -4 -4 -2 -2 -2 -6 -6 -4 -7 -9 -11 -12 -11 -8 -9 -11 -8 -7 -6 -6 -6 -6 -6

GFSSW_850_dewp_024.txt.gz
Dewpoint
2 1 -0 -0 -1 -3 -4 -8 -8 -9 -10 -12 -13 -14 -16 -18 -19 -10 -2 -2 -10 -12 -6 -2 -1 -1 -0 1 3 3 6 4 2 2 4 -3 -2 -4 -2 1 0 -2 4 3 5
-0 -5 -5 -4 -3 -7 -8 -8 -9 -9 -11 -12 -14 -15 -17 -19 -8 -3 -7 -14 -13 -14 -2 -2 -2 -2 -3 -3 0 2 6 2 -2 -2 -0 -3 -5 -4 -5 -3 -3 -5 -4 2 3
-1 -3 -4 -6 -8 -8 -8 -8 -9 -10 -11 -13 -14 -16 -18 -12 -3 -1 -17 -15 -13 -15 -3 -3 -2 -2 -4 -2 -3 -3 3 -1 -5 -6 -7 -3 -4 -7 -6 -2 -3 -3 -6 -2 2
1 -2 -6 -7 -7 -7 -7 -7 -8 -10 -12 -13 -15 -17 -18 -3 -3 -4 -13 -16 -18 -17 -3 -3 -3 -4 -3 -1 -5 -0 -4 -6 -7 -5 -5 -3 -4 -4 -6 -6 -6 -6 -7 -5 1
-3 -4 -5 -6 -6 -7 -7 -8 -9 -10 -12 -13 -15 -17 -12 -1 -4 -11 -12 -13 -9 -4 -3 -2 -4 -5 -1 -5 -6 -4 -4 -5 -5 -5 -5 -5 -4 -3 -4 -5 -6 -6 -7 -6 -3
-5 -5 -5 -5 -6 -6 -6 -8 -9 -10 -12 -13 -14 -16 -6 -6 -9 -8 -12 -8 -10 -4 -3 -2 -2 -2 -4 -5 -3 -5 -4 -4 -6 -6 -7 -5 -4 -5 -6 -6 -6 -7 -7 -6 -6
-6 -6 -6 -6 -6 -6 -6 -8 -9 -11 -12 -13 -15 -13 -4 -4 -9 -8 -11 -11 -13 -12 -3 -2 -1 -2 -3 -2 -4 -2 -3 -4 -5 -7 -5 -4 -2 -3 -8 -7 -6 -6 -9 -9 -9
-7 -7 -7 -7 -7 -7 -7 -8 -9 -11 -12 -14 -16 -4 -6 -15 -12 -11 -7 -8 -7 -5 -6 -3 -3 -2 -3 -3 -6 -5 -4 -1 -5 -6 -2 -4 -0 -2 -9 -8 -8 -9 -10 -11 -12
-10 -10 -9 -9 -9 -9 -9 -9 -10 -11 -13 -15 -5 -5 -4 -9 -8 -9 -7 -7 -7 -5 -4 -5 -3 -2 -3 1 -0 -2 -4 -4 -5 -9 -6 -4 -2 -6 -8 -10 -10 -10 -10 -11 -11
-12 -12 -12 -12 -12 -12 -12 -13 -14 -14 -14 -9 -12 -5 -9 -7 -9 -10 -9 -9 -5 -5 -4 -3 -3 -1 -0 -1 1 -4 -6 -8 -6 -9 -8 -5 -4 -7 -8 -8 -7 -7 -8 -8 -8
-11 -12 -13 -13 -13 -11 -13 -2 2 0 -2 -3 -6 -7 -6 -6 -8 -8 -8 -7 -6 -5 -3 -3 -2 -2 -3 -4 -6 -7 -7 -6 -6 -5 -3 -1 -2 -4 -5 -5 -5 -4 -3 -2 -2
-5 -9 -12 -13 -8 -5 -0 1 -1 -1 -2 -2 -4 -3 -5 -7 -5 -7 -7 -6 -7 -3 -6 -3 0 -4 -5 -6 -4 -3 -2 -2 -3 -3 -4 -3 -2 -4 -4 -2 -2 -2 -4 -5 -5
-0 -5 -10 -12 -8 -2 1 -3 -8 -2 0 -3 -2 -3 -4 -3 -5 -5 -6 -6 -6 -4 -4 -2 -2 -4 -6 -4 -3 -3 -2 -1 -1 -2 -3 -2 -1 -2 -2 -2 -4 -6 -7 -8 -8
3 -6 -9 -5 1 1 1 -8 -7 -5 1 -1 -3 -3 -3 -4 -4 -4 -5 -5 -5 -3 -3 -3 -5 -5 -2 -3 -4 -1 -2 -2 -1 -0 1 -3 2 -1 -1 -2 -4 -6 -6 -7 -8
4 -4 -7 -1 -0 2 2 -6 -4 0 6 -3 -2 -3 -4 -4 -3 -2 -4 -4 -3 -3 -3 -4 -3 -2 -2 -3 -3 -2 -1 -1 0 1 1 1 3 -1 -1 -0 -2 -4 -7 -12 -10
-2 2 -4 -3 -0 -2 -3 -5 0 3 2 1 -1 -2 -2 -3 -2 -2 -2 -1 -1 -1 -2 -3 -5 -4 -3 -2 -2 -3 -0 -1 -2 -1 4 0 2 -1 -1 -1 -7 -11 -14 -15 -13
-8 3 1 1 3 -1 -2 1 3 2 -2 1 0 -3 -3 -2 -3 -3 -1 1 -0 1 1 -1 -3 -3 -2 -3 -1 -0 0 2 2 6 6 -2 -2 -2 -3 -9 -12 -13 -14 -14 -14
-3 -0 1 2 0 -1 -1 1 2 0 1 -1 -2 -4 -1 -2 -2 -8 -2 0 -2 -3 -0 1 1 -2 -6 -3 -1 -2 -1 2 2 1 3 -2 -1 -1 -8 -13 -13 -12 -12 -13 -13
-0 -3 -5 -3 -2 -2 2 1 4 0 -5 -3 -3 -3 1 -1 -7 -9 -0 3 -0 -3 -2 -1 -1 -5 -8 -4 -4 -3 -2 -6 -0 -1 0 -2 -5 -5 -10 -12 -11 -11 -12 -13 -13
1 -7 -17 -8 -4 -1 1 2 -2 -8 -8 -7 -2 -4 -4 -5 -8 -12 -11 -2 -2 -5 -6 -6 -6 -12 -6 -8 -8 -5 -7 -5 -5 -3 -3 -8 -8 -7 -9 -10 -10 -11 -12 -14 -13
3 -1 -14 -11 -4 1 1 1 -5 -11 -7 -5 -6 -9 -5 -6 -12 -14 -8 -2 -4 -4 -7 -8 -8 -9 -10 -10 -9 -8 -8 -9 -8 -7 -4 -0 -3 -9 -9 -9 -10 -11 -13 -14 -10
-5 -7 -17 -6 -6 -6 -1 -4 -9 -11 -12 -8 -7 -7 -7 -10 -11 -13 -8 -3 -3 -5 -9 -8 -7 -8 -11 -11 -10 -10 -10 -10 -0 -1 -2 -1 -2 -9 -10 -10 -11 -12 -14 -12 -9
-14 -16 -24 -14 -11 -9 -8 -8 -8 -10 -8 -9 -7 -9 -11 -10 -10 -12 -10 -2 -4 -7 -6 -6 -8 -5 -6 -4 -6 -6 -6 -5 -6 -2 -0 0 -2 -9 -10 -10 -11 -12 -12 -9 -7
-11 -6 -14 -14 -15 -12 -12 -12 -7 -7 -9 -9 -8 -9 -10 -11 -10 -9 -9 -6 -5 -6 -5 -5 -6 -7 -3 -4 -5 -5 -6 -7 -6 -2 -3 -3 -5 -8 -9 -10 -11 -11 -10 -7 -7
-8 -8 -7 -9 -14 -15 -15 -15 -9 -7 -10 -10 -7 -9 -9 -11 -12 -11 -9 -9 -9 -4 -6 -5 -3 -5 -5 -5 -5 -5 -5 -6 -6 -6 -4 -5 -6 -8 -10 -12 -12 -11 -8 -6 -6
-6 -7 -11 -12 -15 -15 -12 -13 -11 -12 -11 -11 -11 -7 -9 -8 -8 -7 -8 -8 -7 -7 -7 -6 -2 -3 -1 -4 -5 -5 -6 -7 -7 -7 -7 -9 -9 -12 -11 -12 -10 -6 -6 -6 -6
-13 -10 -8 -11 -15 -14 -10 -10 -10 -12 -9 -8 -9 -9 -8 -6 -5 -6 -7 -7 -7 -5 -5 -4 -2 -0 0 -5 -4 -2 -6 -8 -8 -9 -9 -7 -8 -9 -5 -4 -4 -4 -5 -6 -4

GFSSW_850_dewp_027.txt.gz
Dewpoint
4 2 2 2 1 -1 -4 -8 -9 -10 -10 -12 -13 -13 -15 -19 -14 -6 -2 -3 -4 -14 -4 -3 -2 -2 -1 1 1 4 2 3 -0 -1 1 -3 -3 -5 -6 -4 -2 -1 -2 2 3
-1 -2 -2 -2 -3 -4 -8 -9 -10 -10 -12 -13 -14 -15 -18 -19 -5 -2 -6 -15 -16 -14 -5 -2 -2 -3 -2 -2 0 2 4 0 -2 -4 -4 -5 -4 -4 -5 -6 -7 -6 -6 1 4
-1 -4 -4 -4 -5 -8 -8 -9 -9 -11 -12 -13 -15 -17 -19 -8 -2 -1 -16 -17 -14 -16 -10 -6 -4 -2 -3 -2 -2 -1 0 -1 -3 -6 -6 -4 -4 -4 -5 -4 -7 -5 -3 -3 4
0 -2 -4 -7 -7 -7 -8 -9 -10 -11 -12 -13 -15 -17 -17 -1 -2 -4 -14 -16 -18 -10 -3 -3 -3 -3 -2 -2 -3 -2 -2 -3 -4 -5 -4 -3 -5 -4 -4 -5 -7 -7 -6 -6 1
-1 -2 -4 -6 -6 -7 -8 -9 -10 -11 -12 -13 -15 -17 -10 -1 -5 -11 -13 -13 -11 -4 -4 -3 -3 -3 -2 -4 -5 -4 -5 -4 -4 -5 -5 -6 -4 -4 -5 -6 -6 -6 -6 -7 -7
-5 -5 -5 -6 -7 -7 -8 -9 -10 -11 -13 -14 -15 -16 -4 -2 -8 -12 -12 -12 -12 -4 -3 -2 -2 -2 -4 -3 -2 -4 -3 -3 -5 -7 -6 -5 -5 -5 -6 -8 -8 -6 -6 -6 -7
-6 -6 -6 -6 -7 -7 -8 -9 -10 -11 -13 -14 -15 -9 -5 -5 -9 -12 -12 -11 -14 -13 -2 -2 -6 -4 -3 -3 -3 -5 -2 -3 -4 -5 -4 -5 -4 -6 -9 -8 -7 -6 -9 -10 -11
-7 -7 -7 -7 -7 -8 -8 -9 -10 -12 -13 -15 -9 -2 -7 -14 -12 -11 -9 -8 -7 -7 -9 -9 -8 -5 -3 -3 -3 -6 -5 -4 -5 -6 -3 -7 -3 -5 -10 -9 -10 -11 -11 -10 -3
-9 -9 -9 -9 -8 -9 -9 -10 -11 -13 -14 -10 -5 -5 -4 -8 -8 -11 -11 -8 -8 -5 -5 -5 -4 -2 -4 -1 -1 -3 -4 -6 -7 -9 -4 -4 -4 -6 -9 -8 -8 -9 -8 -3 -3
-12 -12 -12 -12 -11 -11 -12 -12 -14 -14 -9 -10 -7 -6 -8 -7 -10 -10 -11 -10 -7 -5 -5 -3 -3 -2 -2 -1 -0 -5 -7 -8 -7 -9 -6 -3 -3 -4 -6 -5 -3 -3 -3 -5 -6
-13 -13 -14 -14 -14 -13 -12 -2 -0 -1 -3 -3 -6 -6 -5 -7 -8 -8 -8 -8 -7 -5 -4 -3 -3 -4 -4 -6 -6 -5 -5 -4 -4 -4 -3 -3 -2 -4 -2 -3 -6 -7 -8 -7 -6
-9 -12 -14 -14 -10 -6 2 2 1 -1 -2 -3 -6 -5 -6 -8 -5 -7 -7 -6 -6 -4 -5 -4 -2 -4 -5 -5 -4 -4 -2 -2 -2 -2 -3 -2 -2 -2 -5 -6 -7 -8 -8 -8 -7
-5 -10 -13 -7 -3 0 1 -2 -4 -1 -1 -3 -3 -4 -5 -3 -5 -5 -6 -5 -6 -4 -3 -3 -2 -4 -5 -3 -2 -2 -2 -1 -0 -1 -2 -3 -2 -0 -5 -6 -7 -10 -8 -8 -8
-2 -10 -9 -2 -1 2 1 -7 -7 -2 1 -1 -2 -3 -3 -4 -4 -4 -5 -5 -4 -3 -4 -3 -5 -3 -2 -2 -2 -1 -2 -1 0 1 -0 -2 3 -1 -3 -4 -5 -12 -11 -8 -8
0 -8 -2 1 -2 2 3 -6 -5 -4 7 -2 -2 -3 -4 -4 -3 -2 -3 -3 -3 -1 -3 -3 -4 -3 -2 -1 -2 -1 -1 -0 1 2 1 1 2 1 -2 -6 -11 -14 -14 -14 -8
3 -6 -4 -1 0 -1 -3 -4 -1 2 3 1 -1 -2 -2 -3 -2 -2 -1 -1 -1 -1 -1 -2 -4 -4 -3 -3 -2 -2 -0 -3 -2 0 2 -1 2 1 -2 -9 -12 -12 -13 -14 -14
3 -2 -1 0 2 -1 -2 1 2 3 -1 2 1 -3 -2 -2 -4 -4 -1 -2 -1 -2 1 -1 -2 -2 -6 -3 -1 -3 -2 1 -0 3 4 -2 -3 -2 -11 -11 -11 -11 -13 -14 -14
-2 0 1 1 1 -1 -1 1 2 2 1 -1 -2 -3 0 -4 -3 -7 -1 2 -2 -3 -1 -2 -0 -1 -8 -2 -2 -2 -2 2 3 3 4 -2 -2 -3 -12 -11 -11 -12 -12 -14 -14
-5 -8 -13 -4 -2 -1 2 4 4 -2 -6 -4 -3 -2 1 -1 -7 -7 0 3 -2 -4 -2 1 0 -9 -4 -5 -5 -3 -4 -6 -3 -1 0 0 -4 -10 -10 -10 -10 -11 -11 -13 -14
-3 -7 -15 -9 -4 -1 1 2 -6 -9 -7 -5 -2 -5 -2 -6 -9 -14 -0 -2 -2 -4 -5 -7 -6 -9 -6 -7 -7 -7 -7 -4 -5 -4 -3 -5 -6 -2 -8 -8 -10 -10 -11 -11 -10
2 1 -17 -7 -3 0 3 -2 -7 -12 -8 -5 -4 -5 -4 -7 -11 -13 -1 -2 -3 -3 -6 -9 -8 -9 -12 -9 -9 -9 -9 -9 -7 -6 -4 -2 -3 -9 -8 -8 -9 -10 -11 -11 -9
-6 -7 -12 -9 -7 -4 -3 -5 -9 -9 -11 -8 -6 -6 -8 -9 -10 -10 -1 -1 -4 -7 -6 -8 -7 -7 -11 -10 -9 -10 -11 -10 -4 -3 -2 -2 -2 -8 -8 -9 -10 -10 -11 -11 -7
-16 -17 -21 -14 -11 -6 -8 -6 -7 -7 -7 -7 -6 -8 -11 -9 -10 -10 -1 -3 -7 -7 -5 -6 -8 -6 -9 -4 -6 -6 -7 -6 -5 -2 -2 -1 -4 -8 -9 -9 -10 -10 -11 -9 -6
-11 -7 -14 -15 -11 -10 -11 -8 -6 -8 -9 -9 -8 -8 -10 -10 -10 -8 -7 -2 -5 -7 -4 -6 -5 -8 -6 -6 -5 -4 -4 -5 -6 -3 -3 -3 -5 -7 -8 -9 -10 -11 -7 -6 -6
-9 -10 -7 -10 -14 -14 -15 -11 -7 -6 -10 -10 -8 -8 -9 -10 -10 -8 -8 -7 -4 -4 -4 -4 -2 -4 -4 -4 -3 -3 -3 -4 -4 -5 -3 -5 -5 -7 -9 -10 -5 -4 -5 -4 -5
-7 -9 -12 -12 -15 -14 -12 -12 -9 -12 -10 -10 -9 -7 -9 -8 -8 -7 -6 -8 -7 -5 -7 -6 -3 -3 -2 -3 -3 -3 -4 -5 -5 -5 -5 -6 -6 -10 -7 -3 -3 -3 -4 -4 -5
-11 -9 -8 -10 -13 -12 -10 -10 -9 -10 -9 -8 -9 -9 -7 -4 -5 -5 -6 -7 -7 -6 -5 -5 -2 -2 -2 -3 -3 -2 -4 -6 -7 -8 -7 -6 -7 -3 -2 -3 -4 -4 -4 -4 -4

GFSSW_850_dewp_030.txt.gz
Dewpoint
2 2 3 3 2 1 -2 -7 -9 -10 -9 -9 -10 -11 -13 -19 -13 -9 -5 -6 -5 -15 -5 -3 -3 -3 -2 1 1 4 -1 2 -1 -3 -3 -4 -4 -6 -7 -7 -8 -4 -4 -4 2
3 2 2 2 0 -2 -6 -9 -10 -9 -10 -11 -12 -13 -17 -18 -8 -7 -7 -13 -16 -15 -6 -3 -2 -3 -2 -1 2 2 1 -3 -3 -4 -4 -5 -4 -5 -5 -5 -6 -8 -7 -2 1
2 -1 -2 -2 -4 -5 -8 -9 -10 -10 -11 -12 -14 -16 -19 -12 -3 -2 -17 -18 -14 -15 -12 -7 -3 -3 -2 -1 0 1 -1 -2 -3 -5 -3 -4 -5 -4 -5 -4 -8 -8 -7 -6 2
-0 -3 -4 -5 -7 -7 -8 -9 -10 -11 -12 -13 -15 -18 -14 -4 -5 -4 -15 -17 -17 -8 -5 -3 -3 -3 -2 -2 -2 -2 -2 -2 -3 -4 -3 -3 -4 -4 -5 -7 -8 -6 -6 -6 -4
-1 -2 -4 -6 -6 -8 -8 -9 -10 -11 -12 -13 -15 -17 -5 -3 -6 -12 -13 -14 -9 -6 -5 -3 -2 -2 -3 -3 -5 -4 -4 -4 -4 -4 -5 -7 -5 -5 -6 -8 -7 -7 -6 -5 -5
-4 -4 -5 -6 -7 -7 -8 -9 -10 -11 -12 -14 -15 -12 -2 -4 -8 -10 -12 -12 -9 -4 -3 -3 -2 -2 -3 -4 -2 -3 -3 -3 -5 -5 -5 -5 -5 -5 -7 -7 -8 -7 -7 -7 -5
-5 -5 -6 -6 -6 -7 -8 -9 -10 -11 -13 -14 -15 -6 -5 -6 -8 -11 -11 -12 -13 -9 -3 -4 -6 -8 -3 -3 -3 -4 -5 -5 -6 -5 -5 -4 -5 -4 -8 -8 -9 -8 -5 -3 -2
-6 -7 -7 -7 -7 -7 -8 -10 -11 -12 -13 -14 -6 -4 -8 -15 -13 -12 -12 -10 -8 -9 -10 -11 -8 -9 -4 -3 -3 -5 -5 -4 -7 -9 -4 -6 -3 -6 -8 -7 -7 -3 -4 -5 -5
-8 -8 -8 -8 -8 -8 -9 -10 -12 -13 -14 -6 -5 -5 -7 -8 -9 -12 -12 -10 -9 -6 -5 -3 -4 -3 -4 -1 -2 -5 -5 -6 -7 -10 -5 -4 -4 -5 -3 -5 -3 -5 -5 -5 -5
-11 -10 -10 -10 -10 -10 -11 -12 -13 -14 -12 -8 -7 -9 -9 -7 -10 -10 -11 -10 -7 -6 -5 -4 -3 -2 -3 -1 -3 -4 -6 -8 -8 -8 -3 -3 -2 -5 -4 -4 -6 -6 -6 -6 -6
-13 -13 -13 -12 -13 -12 -12 -8 -4 -5 -4 -4 -6 -6 -6 -7 -8 -8 -7 -7 -7 -6 -4 -2 -3 -4 -4 -6 -6 -6 -5 -3 -4 -4 -3 -3 -2 -5 -7 -8 -8 -7 -6 -7 -8
-13 -14 -14 -13 -12 -1 1 0 0 -3 -3 -4 -4 -5 -5 -8 -6 -6 -6 -6 -6 -5 -5 -4 -3 -4 -5 -5 -4 -3 -2 -2 -2 -2 -3 -3 -2 -5 -7 -7 -8 -7 -7 -8 -8
-10 -13 -13 -9 -5 0 -1 -3 -1 -0 -3 -3 -3 -4 -4 -4 -5 -5 -6 -5 -5 -5 -3 -3 -3 -4 -4 -2 -2 -3 -2 -2 -1 -1 -3 -3 -0 -4 -5 -11 -11 -7 -7 -7 -7
-8 -13 -8 -4 -1 1 -3 -7 -3 -0 1 -2 -2 -3 -4 -4 -4 -3 -4 -5 -4 -3 -3 -4 -4 -3 -3 -3 -2 -1 -2 -1 -0 1 0 -2 1 -0 -4 -10 -13 -13 -10 -7 -7
-10 -8 -1 0 0 3 -1 -6 -6 -4 5 -2 -3 -3 -4 -3 -3 -2 -1 -2 -3 -0 -2 -4 -4 -3 -3 -2 -2 -1 -2 -1 -0 1 1 1 2 1 -7 -10 -11 -12 -13 -14 -8
-8 -4 -1 -1 1 -1 -4 -4 -3 -2 1 1 -1 -2 -2 -2 -3 -2 -1 -3 -3 -2 -2 -1 -3 -3 -3 -4 -2 -3 -4 -4 -0 1 2 -1 2 2 -7 -10 -11 -12 -13 -14 -14
-3 -6 -3 -1 2 -2 -3 -1 -3 4 -0 2 0 -3 -2 -2 -5 -4 -2 -3 -2 -7 -2 -2 -1 -4 -6 -4 -4 -4 -2 -1 -2 2 0 -1 -3 -3 -11 -11 -11 -12 -12 -13 -14
1 1 1 1 2 -1 -2 -1 2 2 0 -3 -3 -3 0 -5 -5 -2 1 2 -3 -4 -1 -1 -3 -6 -7 -4 -4 -3 -2 -1 -6 0 2 -1 -4 -7 -11 -11 -11 -11 -11 -11 -12
-6 -10 -10 -4 -3 -2 1 4 3 -2 -6 -5 -3 -2 1 -3 -8 -1 -0 1 -3 -4 -4 -4 -4 -9 -5 -6 -8 -6 -4 -4 -3 -2 -1 -1 -8 -10 -10 -10 -10 -10 -11 -11 -11
-8 -9 -17 -5 -4 -0 0 1 -7 -10 -6 -5 -2 -5 -1 -8 -10 -12 -1 -2 -3 -5 -6 -7 -9 -11 -9 -8 -10 -8 -7 -2 -5 -6 -4 -5 -5 -4 -8 -8 -9 -10 -10 -10 -10
1 -6 -10 -5 -2 -0 1 -2 -10 -11 -7 -5 -4 -5 -7 -9 -11 -10 -1 -2 -4 -5 -8 -9 -8 -12 -12 -9 -9 -9 -9 -8 -7 -6 -5 -4 -5 -8 -8 -8 -9 -10 -10 -10 -10
-6 -17 -15 -13 -7 -5 -4 -6 -10 -8 -9 -8 -7 -9 -9 -9 -11 -7 -1 -2 -5 -7 -6 -7 -7 -6 -11 -13 -10 -11 -10 -9 -5 -7 -3 -2 -2 -8 -8 -9 -10 -9 -10 -10 -7
-17 -18 -16 -14 -12 -6 -8 -7 -7 -7 -8 -7 -6 -9 -11 -10 -11 -9 -1 -3 -8 -8 -8 -9 -10 -9 -13 -5 -7 -6 -7 -6 -5 -3 -2 -2 -4 -9 -9 -9 -9 -9 -7 -6 -5
-10 -9 -15 -12 -10 -9 -10 -8 -9 -8 -9 -8 -8 -8 -10 -10 -11 -8 -2 -2 -6 -7 -3 -7 -7 -12 -8 -10 -5 -3 -5 -5 -5 -3 -4 -4 -6 -8 -8 -8 -9 -5 -4 -4 -4
-12 -8 -8 -12 -13 -14 -13 -8 -7 -7 -10 -10 -8 -9 -10 -11 -10 -8 -8 -6 -4 -4 -4 -5 -3 -3 -4 -4 -3 -3 -3 -3 -3 -4 -3 -5 -5 -6 -8 -9 -5 -3 -4 -4 -5
-8 -12 -13 -12 -15 -13 -11 -11 -8 -11 -10 -11 -9 -8 -9 -9 -9 -7 -7 -8 -8 -4 -4 -5 -4 -3 -2 -4 -3 -2 -3 -3 -3 -4 -4 -5 -4 -8 -10 -5 -4 -4 -5 -7 -7
-10 -9 -11 -10 -13 -11 -10 -11 -10 -11 -9 -8 -7 -8 -9 -8 -5 -6 -6 -7 -7 -6 -5 -5 -3 -2 -2 -3 -3 -3 -3 -4 -5 -6 -6 -5 -7 -8 -4 -4 -6 -8 -7 -7 -5

GFSSW_850_dewp_033.txt.gz
Dewpoint
4 5 6 6 5 3 1 -4 -9 -10 -8 -6 -5 -7 -11 -17 -19 -17 -8 -5 -5 -14 -6 -4 -3 -5 -5 1 2 3 -2 0 -0 -2 -4 -5 -5 -6 -6 -6 -9 -8 -7 -2 -4
3 3 2 3 3 1 -2 -7 -9 -9 -8 -8 -8 -10 -14 -18 -8 -5 -7 -10 -13 -16 -9 -3 -3 -5 -3 -1 2 0 -4 -8 -5 -4 -5 -4 -4 -5 -5 -6 -9 -9 -8 -6 -5
3 2 2 1 1 -2 -6 -8 -9 -8 -9 -10 -11 -13 -17 -15 -5 -3 -16 -16 -15 -16 -14 -7 -4 -3 -2 -1 1 1 -2 -3 -3 -3 -3 -3 -4 -4 -5 -5 -8 -7 -5 -5 -5
3 0 -1 -2 -4 -5 -7 -8 -8 -10 -10 -11 -13 -15 -17 -8 -7 -4 -15 -17 -17 -11 -5 -3 -3 -3 -2 -2 -2 -2 -2 -2 -2 -3 -3 -3 -4 -4 -5 -7 -5 -5 -4 -5 -4
-1 -4 -4 -5 -6 -7 -7 -8 -9 -10 -11 -12 -14 -17 -7 -1 -5 -11 -13 -12 -10 -6 -5 -3 -3 -2 -3 -3 -4 -3 -4 -4 -4 -5 -5 -4 -5 -6 -8 -6 -4 -4 -4 -3 -3
-3 -4 -4 -5 -6 -6 -7 -8 -9 -10 -11 -13 -15 -12 -2 -6 -9 -11 -11 -13 -8 -5 -5 -3 -2 -2 -2 -4 -3 -3 -3 -4 -7 -6 -5 -4 -5 -5 -6 -6 -5 -4 -4 -3 -3
-5 -5 -5 -5 -6 -7 -8 -9 -10 -11 -12 -13 -14 -5 -5 -6 -8 -13 -12 -12 -14 -9 -4 -5 -7 -9 -4 -4 -3 -3 -5 -6 -7 -8 -4 -4 -6 -4 -4 -4 -4 -5 -5 -4 -4
-6 -6 -6 -6 -7 -8 -8 -9 -10 -11 -12 -13 -9 -6 -11 -13 -13 -12 -12 -12 -10 -9 -7 -7 -7 -7 -6 -3 -4 -4 -5 -5 -7 -8 -6 -6 -4 -4 -3 -4 -4 -5 -5 -6 -6
-7 -7 -7 -7 -7 -8 -9 -10 -11 -12 -12 -4 -4 -6 -10 -9 -10 -12 -12 -11 -10 -6 -5 -4 -4 -3 -4 -3 -4 -5 -5 -7 -8 -7 -3 -4 -2 -6 -4 -5 -5 -6 -7 -8 -9
-9 -9 -9 -9 -9 -9 -10 -10 -12 -13 -6 -6 -7 -9 -9 -7 -10 -9 -8 -10 -8 -6 -5 -4 -3 -4 -4 -3 -7 -4 -6 -7 -7 -6 -3 -2 -3 -7 -7 -6 -6 -7 -8 -8 -9
-11 -11 -11 -11 -10 -11 -11 -10 -5 -6 -4 -5 -6 -6 -7 -8 -8 -7 -7 -7 -7 -6 -4 -2 -2 -4 -5 -5 -5 -6 -5 -4 -4 -4 -3 -3 -4 -6 -7 -7 -8 -8 -8 -8 -8
-12 -13 -13 -13 -12 -9 -7 -0 -3 -5 -3 -5 -4 -5 -6 -8 -7 -6 -6 -6 -7 -6 -5 -4 -3 -5 -5 -5 -4 -3 -2 -2 -3 -2 -2 -4 -4 -6 -7 -7 -7 -7 -7 -8 -8
-11 -13 -13 -11 -1 1 0 -0 -3 -2 -3 -3 -3 -4 -4 -4 -5 -4 -5 -5 -5 -4 -3 -3 -4 -4 -4 -3 -2 -3 -3 -2 -1 -1 -3 -3 -2 -5 -10 -12 -9 -7 -7 -7 -8
-10 -12 -8 -6 -2 -3 -6 -3 -0 0 -0 -2 -3 -3 -4 -4 -3 -3 -1 -5 -4 -2 -2 -4 -4 -3 -3 -3 -2 -2 -3 -2 -0 1 -1 -2 1 -3 -8 -12 -12 -13 -11 -7 -7
-11 -7 -3 -3 -1 0 -5 -7 -3 -2 -1 -2 -3 -3 -4 -3 -3 -2 -2 -2 -2 -0 -2 -5 -4 -3 -3 -2 -2 -1 -2 -1 -1 1 0 0 2 0 -10 -10 -11 -12 -13 -13 -9
-8 -2 -0 -1 2 -0 -5 -4 -4 -5 -4 1 -2 -2 -2 -3 -3 -1 -2 -5 -5 -3 -4 -1 -2 -3 -3 -4 -3 -5 -5 -3 0 1 1 -2 1 1 -4 -10 -11 -11 -11 -12 -12
-7 -2 -1 -0 -0 -2 -4 -1 -4 -2 -1 1 -0 -3 -1 -3 -5 -2 -3 -4 -4 -7 -3 -4 -2 -4 -6 -5 -5 -4 -5 -6 -6 0 -1 -1 -1 -3 -11 -11 -11 -11 -11 -11 -11
-5 -4 -0 1 2 -2 -1 -1 1 1 0 -4 -4 -2 -0 -6 -6 -0 2 1 -4 -4 -2 -2 -6 -6 -5 -4 -5 -4 -3 -5 -8 -5 -2 -1 -3 -7 -11 -11 -10 -10 -11 -11 -10
0 -2 -6 -3 -1 -2 1 1 0 -1 -6 -6 -3 -1 1 -5 -8 -1 -0 -0 -3 -5 -7 -8 -9 -10 -7 -8 -8 -7 -5 -5 -4 -4 -2 -2 -5 -10 -10 -10 -10 -9 -10 -10 -10
-12 -15 -6 -4 -3 -0 -0 1 -6 -10 -6 -5 -1 -4 2 -7 -11 -5 -1 -2 -3 -6 -6 -7 -13 -12 -9 -8 -11 -8 -7 -3 -5 -7 -6 -7 -7 -4 -9 -8 -9 -10 -9 -10 -10
-0 -14 -8 -6 -1 -0 1 -2 -10 -10 -7 -5 -5 -5 -7 -9 -13 -6 -2 -3 -4 -7 -8 -9 -10 -15 -12 -10 -9 -9 -9 -7 -7 -6 -5 -4 -7 -9 -9 -8 -9 -9 -9 -8 -7
-5 -15 -14 -12 -6 -6 -3 -6 -9 -8 -9 -8 -8 -9 -8 -10 -12 -6 -1 -2 -5 -9 -8 -7 -8 -9 -13 -13 -11 -11 -11 -10 -5 -7 -4 -3 -2 -9 -8 -9 -9 -9 -9 -8 -6
-18 -16 -14 -13 -11 -6 -7 -7 -7 -7 -8 -7 -7 -9 -11 -10 -12 -7 -2 -3 -7 -9 -6 -11 -11 -11 -12 -8 -7 -6 -6 -6 -4 -3 -3 -3 -5 -9 -8 -9 -9 -8 -9 -6 -7
-10 -10 -15 -12 -10 -9 -10 -9 -9 -8 -9 -8 -9 -9 -10 -10 -11 -8 -2 -2 -7 -7 -4 -8 -10 -13 -7 -10 -6 -7 -5 -5 -5 -3 -3 -4 -7 -10 -10 -8 -8 -8 -8 -6 -6
-13 -8 -10 -13 -13 -12 -10 -8 -10 -10 -10 -9 -9 -9 -11 -11 -9 -8 -5 -2 -4 -5 -4 -7 -6 -5 -5 -7 -6 -4 -4 -4 -3 -4 -3 -9 -6 -8 -8 -7 -8 -8 -6 -6 -7
-11 -13 -14 -12 -14 -12 -11 -9 -8 -10 -12 -11 -9 -9 -10 -11 -11 -9 -8 -8 -6 -4 -4 -5 -5 -3 -3 -4 -3 -2 -3 -4 -4 -4 -4 -5 -4 -7 -7 -8 -7 -6 -7 -8 -6
-10 -10 -14 -10 -13 -12 -10 -11 -10 -11 -9 -8 -9 -8 -9 -9 -7 -6 -7 -7 -8 -3 -5 -4 -3 -2 -4 -4 -4 -5 -7 -5 -4 -4 -4 -3 -6 -8 -6 -6 -6 -7 -6 -4 -4

GFSSW_850_dewp_036.txt.gz
Dewpoint
7 6 5 5 6 6 3 0 -5 -9 -8 -6 -2 -5 -8 -14 -19 -18 -5 -4 -5 -14 -6 -5 -4 -7 -8 -0 2 2 -3 -2 -1 -1 -6 -5 -4 -6 -5 -6 -9 -8 -6 -4 -3
3 5 5 6 5 3 1 -2 -7 -8 -7 -6 -5 -7 -11 -17 -8 -4 -8 -8 -10 -15 -11 -4 -3 -6 -3 -1 2 -2 -7 -10 -6 -5 -4 -4 -4 -4 -5 -5 -7 -5 -5 -5 -5
3 2 3 2 2 1 -1 -5 -8 -8 -7 -7 -8 -10 -15 -16 -6 -3 -14 -15 -15 -16 -15 -9 -5 -4 -3 -1 1 0 -4 -4 -3 -3 -2 -3 -4 -4 -4 -4 -2 -2 -3 -3 -2
3 2 2 1 1 -1 -5 -7 -7 -8 -9 -9 -10 -13 -17 -10 -9 -5 -13 -16 -16 -10 -7 -5 -4 -3 -2 -2 -3 -1 -2 -2 -2 -3 -3 -3 -4 -5 -3 -1 -2 -3 -3 -3 -2
3 2 -1 -2 -3 -5 -6 -7 -7 -9 -10 -11 -13 -15 -9 -3 -6 -11 -13 -12 -10 -7 -7 -5 -4 -3 -4 -3 -4 -3 -4 -4 -4 -6 -5 -4 -5 -4 -3 -3 -4 -4 -4 -4 -3
-2 -1 -4 -5 -5 -6 -6 -7 -9 -10 -11 -12 -14 -14 -2 -6 -10 -12 -11 -14 -9 -6 -6 -4 -3 -3 -3 -4 -4 -3 -3 -5 -8 -7 -5 -5 -4 -5 -3 -4 -4 -4 -4 -4 -4
-2 -4 -6 -6 -6 -6 -7 -9 -9 -10 -12 -13 -14 -5 -5 -7 -9 -13 -12 -12 -13 -9 -6 -8 -9 -10 -5 -6 -3 -3 -6 -6 -7 -8 -4 -5 -4 -3 -3 -5 -5 -6 -6 -5 -5
-6 -6 -6 -6 -7 -7 -8 -9 -10 -11 -13 -13 -8 -6 -12 -9 -12 -12 -12 -11 -9 -9 -7 -7 -6 -7 -6 -3 -5 -4 -6 -6 -8 -5 -4 -6 -3 -5 -4 -5 -6 -7 -8 -10 -11
-7 -7 -7 -7 -7 -8 -9 -9 -10 -12 -10 -6 -6 -7 -10 -10 -11 -12 -12 -11 -10 -7 -6 -4 -4 -3 -4 -4 -6 -5 -5 -7 -7 -4 -4 -3 -3 -6 -6 -7 -7 -7 -8 -10 -11
-8 -8 -8 -8 -8 -8 -9 -10 -12 -12 -5 -6 -6 -8 -9 -8 -10 -7 -8 -10 -8 -7 -5 -4 -4 -5 -4 -5 -10 -5 -5 -7 -7 -5 -3 -4 -5 -7 -7 -8 -8 -8 -9 -10 -11
-9 -9 -9 -9 -9 -10 -11 -10 -6 -7 -5 -7 -6 -7 -7 -9 -8 -6 -6 -7 -7 -5 -4 -3 -3 -5 -5 -5 -5 -6 -5 -4 -4 -4 -4 -5 -5 -7 -7 -8 -8 -8 -8 -9 -11
-11 -11 -11 -11 -11 -11 -10 -3 -5 -6 -4 -4 -4 -5 -6 -6 -7 -5 -6 -7 -7 -5 -5 -4 -4 -5 -5 -5 -4 -3 -3 -3 -3 -2 -4 -4 -5 -7 -7 -7 -7 -8 -8 -9 -9
-12 -12 -12 -12 -6 -5 -3 0 -5 -3 -3 -3 -3 -4 -4 -4 -5 -3 -4 -5 -5 -4 -3 -3 -4 -4 -5 -3 -3 -3 -3 -3 -2 -1 -4 -5 -4 -7 -11 -10 -7 -7 -8 -8 -8
-12 -12 -11 -2 -0 -2 -2 -2 -1 -0 -2 -3 -3 -3 -4 -4 -3 -2 -2 -4 -4 -2 -3 -3 -4 -3 -4 -3 -2 -1 -3 -2 -1 0 -2 -3 -1 -4 -9 -12 -13 -13 -12 -10 -8
-12 -7 -4 -2 -0 -3 -5 -2 -1 -2 -8 -2 -3 -3 -4 -3 -2 -2 -2 -2 -1 -1 -3 -5 -4 -3 -2 -2 -2 -1 -4 -2 -1 0 -0 -0 2 0 -10 -10 -12 -12 -11 -12 -13
-8 -3 -2 -0 1 -0 -6 -6 -4 -6 -6 1 -2 -2 -3 -3 -3 -1 -3 -5 -6 -4 -3 -2 -3 -4 -3 -3 -4 -5 -5 -4 -0 0 -1 -2 1 -1 -8 -10 -11 -11 -11 -11 -11
-3 -0 0 0 -1 -3 -4 -2 -4 -5 -1 1 -0 -3 -2 -3 -4 -2 -3 -4 -4 -4 -5 -6 -3 -6 -5 -5 -6 -4 -9 -8 -9 -2 -2 -2 -0 -2 -7 -11 -11 -11 -11 -10 -11
-3 -3 -0 1 0 -2 -2 -2 -5 -0 1 -4 -4 -2 -0 -6 -5 1 1 -1 -5 -5 -3 -5 -4 -6 -6 -5 -5 -3 -4 -6 -12 -9 -5 -2 -2 -5 -11 -11 -10 -10 -10 -10 -10
-3 0 -1 -1 -0 -2 -1 -1 -3 -0 -6 -5 -3 -1 1 -5 -7 -1 0 -1 -4 -6 -10 -9 -12 -11 -9 -9 -9 -6 -5 -5 -5 -4 -4 -5 -5 -9 -11 -11 -10 -9 -9 -10 -9
-9 -11 -6 -4 -2 -1 -0 0 -5 -10 -7 -6 -2 -4 1 -5 -11 -5 -1 -3 -3 -7 -7 -8 -17 -11 -10 -9 -11 -8 -8 -6 -6 -7 -7 -8 -8 -6 -9 -9 -9 -9 -9 -9 -8
-7 -12 -9 -3 -0 -0 0 -2 -10 -9 -7 -5 -4 -5 -5 -8 -13 -7 -4 -3 -4 -8 -9 -10 -13 -17 -13 -10 -9 -11 -8 -6 -6 -6 -5 -5 -7 -11 -10 -9 -9 -9 -9 -9 -9
-4 -13 -13 -11 -5 -6 -3 -7 -9 -8 -8 -8 -8 -9 -8 -11 -12 -6 -3 -2 -5 -9 -10 -8 -10 -12 -16 -14 -11 -10 -10 -9 -4 -8 -5 -4 -3 -9 -10 -9 -10 -9 -8 -8 -8
-17 -15 -13 -12 -10 -6 -7 -8 -7 -8 -8 -7 -9 -10 -11 -11 -13 -6 -2 -3 -8 -9 -8 -10 -12 -11 -15 -10 -7 -7 -7 -6 -5 -3 -3 -3 -7 -9 -9 -9 -9 -9 -8 -8 -8
-13 -14 -14 -12 -9 -8 -9 -9 -9 -9 -9 -8 -9 -10 -11 -11 -11 -7 -3 -3 -7 -7 -4 -8 -11 -12 -5 -10 -7 -5 -6 -6 -6 -3 -4 -4 -9 -10 -9 -9 -9 -8 -8 -8 -9
-12 -8 -11 -13 -13 -12 -10 -10 -12 -11 -10 -9 -9 -9 -12 -11 -9 -9 -3 -2 -4 -4 -5 -8 -6 -7 -6 -7 -9 -8 -9 -5 -4 -5 -6 -12 -8 -10 -11 -9 -8 -8 -7 -8 -7
-12 -13 -14 -13 -14 -13 -11 -9 -9 -9 -13 -12 -10 -10 -11 -13 -12 -10 -7 -5 -5 -4 -5 -5 -6 -3 -5 -4 -4 -3 -4 -4 -5 -5 -5 -5 -5 -8 -8 -8 -8 -7 -8 -6 -5
-9 -13 -14 -10 -13 -12 -11 -11 -9 -11 -10 -9 -12 -8 -9 -10 -8 -8 -9 -9 -9 -3 -4 -4 -3 -3 -6 -4 -5 -7 -9 -5 -4 -4 -5 -4 -7 -8 -7 -6 -7 -7 -5 -6 -7

GFSSW_850_dewp_042.txt.gz
Dewpoint
6 6 6 7 6 5 5 5 0 -4 -7 -4 -3 -0 -5 -12 -17 -10 -5 -5 -7 -12 -9 -6 -7 -9 -9 -0 -0 -6 1 1 -2 -4 -2 -4 -6 -4 -4 -6 -3 -1 -0 1 6
7 6 6 6 5 4 4 4 -1 -5 -7 -5 -3 -3 -8 -14 -7 -7 -12 -8 -10 -13 -13 -8 -5 -8 -1 2 2 -2 -1 -4 -5 -3 -2 -3 -4 -2 -4 -3 -1 -2 -0 3 6
4 6 6 5 5 5 5 1 -3 -7 -7 -5 -4 -6 -13 -8 -3 -7 -15 -15 -15 -15 -14 -12 -9 -5 -1 1 1 0 -2 -2 -2 -1 -2 -4 -3 -2 -3 0 -1 -2 -1 1 3
4 3 4 4 4 3 2 -2 -6 -8 -6 -6 -5 -9 -15 -8 -5 -8 -13 -16 -15 -12 -9 -8 -6 -3 -2 -2 -2 -2 -1 -2 -1 -3 -3 -3 -3 -2 -1 -1 -3 -2 -2 -2 -1
3 3 2 2 2 1 -2 -6 -7 -7 -7 -7 -8 -12 -9 -6 -6 -11 -12 -14 -12 -11 -9 -7 -4 -3 -4 -3 -4 -4 -3 -3 -4 -3 -2 -3 -2 -2 -3 -3 -3 -3 -3 -3 -2
3 2 2 2 -1 -3 -7 -7 -7 -8 -8 -10 -12 -10 -6 -8 -11 -11 -13 -14 -14 -10 -9 -5 -2 -4 -3 -3 -5 -3 -4 -5 -4 -3 -3 -2 -2 -2 -3 -4 -4 -4 -4 -4 -4
2 1 -0 -3 -4 -6 -7 -7 -8 -9 -11 -12 -13 -4 -6 -7 -10 -12 -12 -12 -12 -8 -9 -12 -12 -8 -5 -5 -3 -4 -7 -6 -5 -4 -3 -3 -1 -1 -4 -4 -5 -6 -6 -6 -7
-2 -3 -4 -4 -5 -7 -7 -8 -9 -11 -13 -12 -7 -7 -7 -8 -11 -12 -12 -11 -10 -10 -10 -9 -12 -11 -5 -3 -6 -6 -6 -4 -5 -4 -3 -3 -3 -3 -4 -5 -6 -7 -7 -8 -9
-5 -5 -5 -6 -7 -8 -8 -9 -11 -12 -10 -7 -7 -10 -9 -11 -11 -11 -12 -11 -9 -9 -7 -5 -6 -2 -3 -6 -7 -5 -11 -6 -4 -4 -4 -4 -1 -3 -4 -5 -6 -7 -8 -8 -9
-6 -5 -6 -7 -8 -8 -9 -10 -10 -6 -6 -6 -8 -9 -9 -9 -8 -7 -9 -10 -8 -7 -3 -2 -4 -6 -5 -7 -9 -9 -8 -5 -4 -3 -4 -3 -2 -4 -5 -6 -6 -8 -8 -9 -10
-6 -7 -8 -8 -8 -9 -10 -8 -4 -5 -6 -7 -7 -8 -9 -9 -8 -6 -7 -7 -7 -5 -7 -3 -5 -7 -5 -5 -6 -4 -3 -3 -4 -3 -2 -3 -3 -4 -6 -6 -7 -7 -9 -10 -10
-8 -8 -8 -8 -9 -10 -8 -2 -9 -5 -4 -4 -6 -7 -8 -7 -5 -3 -7 -6 -6 -6 -5 -4 -6 -4 -5 -4 -3 -3 -3 -4 -3 -2 -3 -2 -2 -4 -6 -7 -7 -8 -9 -9 -9
-9 -9 -10 -10 -10 -10 -2 -4 -7 -6 -5 -3 -4 -4 -4 -5 -3 -2 -4 -4 -5 -4 -4 -4 -3 -4 -3 -3 -2 -3 -3 -4 -3 -1 -3 -3 -2 -3 -6 -7 -8 -8 -9 -9 -8
-11 -11 -11 -9 -8 -7 -1 -5 -4 -4 -7 -3 -3 -3 -4 -3 -2 -2 -3 -4 -3 -3 -3 -3 -4 -3 -3 -3 -3 -3 -4 -2 -1 -1 -2 -4 -9 -2 -5 -6 -8 -9 -9 -10 -10
-12 -11 -4 -2 -2 -3 -3 -4 -1 -1 -6 -3 -3 -3 -3 -3 -2 -1 -4 -2 -2 -1 -2 -2 -3 -2 -2 -2 -2 -1 -3 -3 -2 -2 -2 -2 -2 -3 -5 -6 -7 -10 -11 -11 -11
-10 -3 -1 -0 -2 -5 -3 -2 -3 -4 -3 0 -2 -2 -2 -3 -3 -3 -5 -5 -4 -3 -2 -3 -3 -4 -3 -3 -4 -5 -4 -3 -2 -2 -1 -4 -2 -7 -5 -6 -8 -11 -11 -11 -10
-4 -3 -1 -1 -1 -6 -5 -3 -4 -4 -1 0 -0 -2 -2 -2 -3 -2 -4 -6 -4 -3 -2 -2 -3 -6 -5 -4 -5 -5 -6 -7 -3 0 -3 -2 -1 -5 -4 -8 -9 -11 -11 -10 -10
-1 -0 0 -1 -3 -4 -4 -4 -3 -2 -1 -2 -2 -1 -1 -4 -2 -1 -1 -4 -7 -7 -6 -5 -1 -4 -8 -5 -6 -4 -5 -8 -6 -8 -8 -2 -2 -6 -9 -9 -10 -10 -10 -9 -9
-2 -1 -0 1 -2 -2 -2 -4 -4 -1 -2 -1 -2 -0 -0 -6 -6 -3 -2 -3 -6 -8 -8 -9 -8 -9 -10 -8 -7 -5 -6 -4 -7 -6 -7 -9 -9 -9 -10 -10 -10 -10 -9 -8 -8
-2 -5 -3 -1 -1 -2 -3 -3 -2 -7 -6 -5 1 -2 -2 -1 -6 -6 -4 -2 -5 -8 -8 -10 -13 -11 -10 -9 -8 -7 -7 -5 -7 -7 -7 -10 -9 -11 -7 -8 -9 -9 -9 -8 -8
-9 -7 -6 -3 -2 -1 -3 -3 -6 -7 -6 -4 -2 -2 -2 -1 -6 -7 -6 -3 -3 -9 -9 -10 -12 -12 -11 -8 -8 -6 -7 -7 -6 -7 -7 -7 -9 -12 -11 -11 -10 -10 -10 -9 -8
-3 -8 -10 -2 -3 -3 -2 -6 -9 -7 -7 -7 -6 -5 -5 -7 -9 -8 -6 -3 -6 -9 -10 -10 -12 -13 -15 -12 -10 -10 -11 -9 -8 -6 -7 -4 -5 -11 -11 -11 -10 -11 -10 -9 -8
-10 -11 -13 -3 -4 -3 -6 -7 -7 -8 -8 -8 -7 -8 -9 -9 -8 -7 -3 -3 -7 -8 -9 -9 -10 -8 -8 -6 -7 -8 -9 -10 -6 -5 -3 -5 -7 -11 -10 -10 -10 -10 -10 -9 -8
-13 -10 -12 -11 -9 -7 -6 -7 -8 -8 -8 -9 -9 -10 -10 -10 -10 -8 -4 -4 -6 -5 -5 -8 -9 -9 -6 -5 -7 -6 -6 -8 -9 -2 -7 -6 -8 -11 -10 -10 -11 -10 -9 -9 -9
-10 -7 -12 -11 -11 -9 -11 -10 -11 -10 -10 -9 -10 -11 -12 -12 -10 -10 -5 -4 -6 -2 -5 -7 -7 -8 -10 -9 -10 -11 -10 -8 -7 -9 -7 -8 -9 -11 -12 -11 -11 -10 -9 -8 -8
-8 -9 -13 -12 -12 -12 -11 -11 -15 -11 -12 -12 -12 -11 -12 -13 -12 -10 -6 -5 -6 -3 -4 -5 -5 -5 -7 -6 -6 -5 -7 -7 -8 -8 -8 -9 -7 -10 -10 -9 -10 -9 -8 -8 -8
-13 -15 -9 -11 -11 -11 -10 -10 -10 -10 -10 -10 -12 -10 -10 -10 -10 -8 -8 -8 -8 -5 -4 -5 -5 -5 -4 -8 -8 -6 -8 -9 -8 -8 -8 -7 -9 -8 -8 -8 -9 -8 -7 -7 -7

GFSSW_850_dewp_045.txt.gz
Dewpoint
6 6 5 5 5 5 6 5 4 -2 -6 -5 -2 -0 -3 -10 -17 -10 -4 -2 -6 -9 -9 -6 -4 -2 1 3 3 0 5 4 -0 -3 -2 -6 -7 -5 -6 -4 -2 -1 0 2 5
6 6 7 7 6 6 5 4 3 -4 -6 -4 -3 -1 -7 -14 -6 -6 -9 -7 -9 -12 -7 -2 -2 -2 -0 1 1 0 4 -1 -4 -4 -3 -4 -5 -4 -5 -4 -2 -2 -0 3 5
6 6 6 6 5 5 4 3 -0 -5 -7 -4 -3 -4 -12 -7 1 -6 -14 -14 -13 -14 -12 -9 -3 -2 -1 -1 -1 -1 1 -2 -2 -2 -4 -6 -4 -2 -3 -0 -2 -2 -1 0 2
4 4 5 5 5 5 4 1 -3 -6 -6 -5 -3 -7 -14 -4 -2 -5 -13 -17 -15 -14 -7 -3 -4 -3 -2 -1 -3 0 -2 -3 -1 -4 -4 -4 -3 -2 -1 -1 -2 -2 -2 -2 -1
3 4 3 3 3 3 1 -1 -6 -7 -6 -5 -6 -11 -9 -4 -6 -9 -13 -15 -13 -12 -3 -3 -6 -4 -3 -4 -5 -4 -4 -5 -3 -3 -2 -3 -2 -2 -3 -3 -3 -3 -2 -3 -3
3 2 3 2 2 1 -2 -6 -8 -7 -7 -7 -10 -11 -5 -6 -11 -12 -13 -11 -10 -5 -4 -4 -4 -4 -5 -4 -5 -5 -6 -6 -4 -3 -3 -2 -2 -2 -3 -3 -3 -3 -3 -4 -5
2 2 2 2 -1 -4 -5 -7 -7 -8 -9 -10 -11 -5 -2 -5 -12 -13 -12 -13 -13 -5 -4 -6 -6 -7 -7 -5 -5 -7 -6 -6 -5 -4 -3 -2 -1 -1 -3 -4 -4 -5 -5 -6 -7
2 2 0 -3 -5 -5 -6 -8 -8 -9 -11 -11 -6 -6 -6 -9 -8 -11 -10 -9 -13 -15 -12 -15 -6 -6 -7 -6 -8 -8 -9 -5 -4 -4 -3 -3 -4 -2 -4 -4 -5 -6 -6 -7 -8
-1 -2 -4 -5 -6 -6 -8 -9 -9 -11 -10 -6 -6 -3 -8 -11 -9 -11 -9 -7 -6 -6 -9 -8 -2 -4 -5 -6 -8 -7 -11 -7 -2 -5 -4 -3 -3 -2 -4 -5 -5 -6 -7 -7 -9
-4 -5 -5 -6 -6 -8 -9 -10 -9 -6 -6 -6 -7 -6 -10 -10 -7 -9 -7 -8 -6 -5 -3 -3 -5 -5 -7 -8 -9 -8 -8 -10 -7 -3 -4 -3 -3 -2 -4 -4 -5 -6 -7 -7 -9
-6 -6 -6 -6 -8 -9 -10 -6 -1 -1 -3 -5 -8 -8 -8 -8 -8 -5 -7 -6 -6 -6 -6 -5 -5 -7 -10 -7 -7 -8 -7 -6 -6 -4 -3 -4 -4 -3 -4 -4 -5 -6 -7 -8 -9
-7 -6 -7 -8 -9 -10 -4 0 -3 -2 -5 -4 -5 -6 -6 -7 -6 -4 -5 -6 -7 -7 -7 -6 -7 -4 -5 -5 -4 -5 -4 -4 -5 -4 -3 -4 -2 -4 -4 -5 -5 -6 -7 -8 -9
-8 -8 -9 -9 -10 -9 2 1 -8 -4 -6 -4 -4 -6 -5 -5 -5 -3 -4 -5 -6 -6 -6 -6 -2 -4 -4 -3 -3 -3 -3 -5 -5 -2 -2 -1 -2 -3 -4 -5 -6 -6 -7 -8 -8
-10 -10 -10 -10 -8 -0 3 -6 -6 -5 -5 -4 -4 -3 -4 -3 -2 -2 -3 -2 -4 -3 -4 -4 -3 -4 -3 -3 -3 -2 -4 -3 -2 -1 -3 -4 -8 -1 -3 -4 -6 -7 -7 -8 -8
-11 -11 -8 1 1 -1 -1 -5 -3 1 -5 -4 -3 -3 -3 -3 -1 -1 -3 -1 -2 -3 -3 -2 -3 -2 -2 -3 -3 -2 -2 -2 -1 -1 -4 -4 -2 -2 -4 -4 -5 -7 -7 -8 -9
-11 -4 -2 -1 -2 -3 -3 -3 -2 -3 -1 -0 -2 -3 -3 -3 -3 -3 -5 -4 -3 -2 -3 -3 -3 -4 -3 -3 -3 -3 -3 -3 -3 -3 -2 -5 -3 -5 -3 -5 -6 -7 -8 -9 -10
-4 -2 -0 -2 1 -6 -3 0 -4 -4 -2 0 -1 -2 -3 -2 -3 -3 -3 -5 -3 -2 -2 -3 -3 -5 -5 -3 -3 -3 -3 -3 1 2 -0 -4 -4 -8 -5 -8 -8 -8 -9 -10 -10
-2 -1 -0 -1 -4 -6 -1 -2 -2 -4 -4 -1 -2 -2 -1 -2 -2 -2 -2 -2 -8 -7 -7 -5 -1 -3 -6 -4 -4 -5 -5 -5 -3 -5 -6 -3 -4 -5 -8 -8 -9 -9 -10 -10 -9
-0 0 -0 -1 -3 -4 -1 -4 -2 -3 -2 -1 -1 -0 -1 -3 -5 -3 -4 -3 -6 -9 -7 -8 -6 -7 -8 -8 -7 -4 -7 -4 -7 -9 -6 -9 -7 -7 -10 -9 -10 -10 -9 -9 -8
-2 -3 -3 0 -2 -1 -2 -4 -3 -5 -4 -3 0 -1 -1 -1 -4 -5 -4 -3 -5 -9 -9 -10 -11 -9 -8 -9 -7 -6 -7 -4 -5 -5 -4 -9 -8 -9 -7 -8 -10 -10 -9 -8 -7
-5 -5 -8 -3 -2 -1 -2 -2 -5 -6 -5 -3 -1 -0 -3 -2 -4 -5 -7 -3 -4 -8 -10 -11 -12 -10 -11 -8 -8 -6 -8 -8 -7 -7 -6 -5 -7 -12 -11 -11 -10 -10 -10 -9 -8
-4 -7 -7 -4 -4 -4 -4 -5 -8 -6 -6 -6 -5 -4 -4 -4 -6 -5 -6 -4 -5 -8 -8 -10 -9 -11 -12 -11 -10 -9 -9 -9 -6 -5 -6 -4 -4 -12 -12 -12 -11 -12 -12 -11 -10
-7 -9 -8 -3 -4 -6 -5 -6 -7 -6 -6 -7 -6 -6 -8 -6 -5 -8 -6 -3 -6 -8 -8 -8 -9 -7 -7 -6 -8 -11 -11 -11 -10 -4 -2 -3 -5 -12 -11 -11 -10 -9 -10 -10 -10
-11 -8 -10 -6 -8 -8 -7 -6 -6 -8 -7 -9 -10 -9 -9 -9 -9 -8 -6 -4 -6 -6 -8 -8 -8 -8 -6 -6 -7 -7 -7 -8 -9 -4 -5 -5 -7 -9 -9 -9 -11 -11 -11 -10 -9
-8 -5 -9 -10 -11 -9 -9 -9 -9 -8 -10 -10 -10 -11 -12 -12 -11 -11 -8 -4 -6 -2 -6 -7 -6 -8 -8 -10 -10 -10 -10 -11 -7 -8 -7 -7 -8 -9 -10 -10 -11 -11 -10 -9 -9
-7 -9 -10 -12 -12 -12 -10 -12 -14 -13 -13 -12 -12 -12 -14 -13 -11 -10 -8 -8 -8 -4 -5 -6 -5 -5 -7 -9 -7 -7 -8 -8 -8 -9 -9 -9 -7 -9 -9 -10 -9 -9 -8 -8 -8
-12 -14 -6 -11 -11 -9 -7 -9 -11 -11 -11 -12 -12 -11 -11 -10 -11 -10 -8 -8 -8 -7 -4 -5 -5 -3 -3 -7 -7 -5 -6 -7 -7 -9 -7 -5 -7 -9 -8 -8 -8 -8 -8 -8 -8